Location: Shannon
(40.5500°S, 175.4167°E)
Time: 20:36:42
(UTC+00:00)

CZ-2D R/B - Pass Details

Date: 17 November 2025
Orbit: 788 x 842 km, 98.9° (Epoch: 14 December)

Event Time Altitude Azimuth Distance (km) Brightness Sun altitude
Exits shadow 13:52:13 52° 35° (NE) 1,006 2.3 -25.2°
Maximum altitude 13:53:31 77° 106° (ESE) 843 2.2 -25.1°
Drops below altitude 10° 13:58:55 10° 191° (S) 2,442 5.2 -24.6°
Sets 14:01:18 0° 192° (SSW) 3,390 6.0 -24.3°
